Location: Falkner
(32.6954°N, 86.0502°W)
Time: 12:31:18
(UTC+00:00)

OAO 2 Rocket - Pass Details

Date: 29 October 2020
Orbit: 676 x 745 km, 35.0° (Epoch: 04 December)

Event Time Altitude Azimuth Distance (km) Brightness Sun altitude
Rises 23:35:31 0° 269° (W) 3,075 8.7 -9.0°
Reaches altitude 10° 23:37:58 10° 272° (W) 2,147 7.3 -9.5°
Maximum altitude 23:42:58 68° 355° (N) 735 3.4 -10.6°
Enters shadow 23:46:57 16° 77° (ENE) 1,767 4.7 -11.4°
